Weather in Zarechnoye

Russia / Vladimir Oblast     55°56′09″N   39°55′06″E
temp.,
°C
wind,
m/s
gust,
m/s
humid.,
%
clouds,
%
prec.,
mm/h
press.,
hPa
HPBL,
m
19 september, sun
sun1900:00+3e3780100 0.0 1026139
03:00+3e3880100 0.0 1025228
06:00+2ene3983100 0.0 1026253
09:00+5e5964100 0.0 1025490
12:00+9e5749100 0.0 10251112
15:00+10e5746100 0.0 10241195
18:00+9e51050100 0.0 1023845
21:00+7e61351100 0.0 1023711
20 september, mon
mon2000:00+7e61353100 0.0 1022657
03:00+6e61456100 0.1 1021737
06:00+4e71576100 1.3 1021799
09:00+4e81587100 3.4 1021935
12:00+4e81692100 3.6 1021848
15:00+4e81694100 6.4 1020886
18:00+5e71493100 0.7 10201044
21:00+5e71493100 1.0 10201025
21 september, tue
tue2100:00+6e71484100 0.5 1019884
03:00+5e61487100 1.1 1018806
06:00+5e61492100 1.5 1017733
09:00+5e61392100 1.8 1017725
12:00+6e61293100 0.4 1016704
15:00+7e51293100 1.6 1016669
18:00+7e61393100 0.5 1016580
21:00+7e51192100 0.7 1016514
22 september, wed
wed2200:00+6e51089100 0.2 1016467
03:00+6e41094100 1.4 1015517
06:00+6ene41096100 2.1 1015626
09:00+6e4895100 3.3 1016567
12:00+7e3594100 0.0 1017495
15:00+7e3494100 0.1 1017406
18:00+7ene2597100 0.0 1018249
21:00+7ne2497100 0.1 1019157
23 september, thu
thu2300:00+7ne2496100 0.1 1018145
03:00+7ne249760 0.1 1018148
06:00+6ene2397100 0.0 101886
09:00+8e2592100 0.0 1018203
12:00+11ese347925 0.0 1017550
15:00+14ese236493 0.0 10151059
18:00+11ese3787100 0.7 1014180
21:00+9e3797100 1.3 1014188